Vacaville, CA

7:26 PM PDT on August 18, 2017 (GMT -0700)
Nut Tree

Weather History for KVCB - September, 2012

Change the Weather History Date:

Sunday, September 2, 2012

  Actual Average Record
Temperature  
Mean Temperature 71 °F -  
Max Temperature 93 °F 92 °F 112 °F (1950)
Min Temperature 51 °F 55 °F 47 °F (1970)
Cooling Degree Days 6    
Growing Degree Days 21 (Base 50)    
Moisture  
Dew Point 43 °F    
Average Humidity 41    
Maximum Humidity 83    
Minimum Humidity 13    
Precipitation  
Precipitation 0.00 in - - ()
Sea Level Pressure  
Sea Level Pressure 29.92 in    
Wind  
Wind Speed 2 mph (SSW)    
Max Wind Speed 9 mph    
Max Gust Speed -    
Visibility 10 miles    
Events      
Averages and records for this station are not official NWS values.
T = Trace of Precipitation, MM = Missing Value Source: NWS Daily Summary

Daily Weather History Graph

Daily Weather History Graph

Search for Another Location

Airport or City:

Trip Planner

Search our weather history database for the weather conditions in past years. The results will help you decide how hot, cold, wet, or windy it might be!

Date:

Astronomy

Sep. 02, 2012 Rise Set
Actual Time 6:38 AM PDT 7:35 PM PDT
Civil Twilight 6:11 AM PDT 8:02 PM PDT
Nautical Twilight 5:39 AM PDT 8:34 PM PDT
Astronomical Twilight 5:06 AM PDT 9:07 PM PDT
Moon 8:28 PM PDT (9/2) 8:49 AM PDT (9/2)
Length of Visible Light 13h 50m
Length of Day
12h 56m
Waning Gibbous, 95% of the Moon is Illuminated
Sep 2
Waning Gibbous
Sep 8
Last Quarter
Sep 15
New
Sep 22
First Quarter
Sep 29
Full

Hourly Weather History & Observations

Time (PDT) Temp. Dew Point Humidity Pressure Visibility Wind Dir Wind Speed Gust Speed Precip Events Conditions
1:53 AM 55.0 °F 48.0 °F 77% 29.96 in 10.0 mi Calm Calm - N/A   Clear
2:53 AM 53.1 °F 48.0 °F 83% 29.95 in 10.0 mi Calm Calm - N/A   Clear
3:53 AM 52.0 °F 46.9 °F 83% 29.96 in 10.0 mi NNE 3.5 mph - N/A   Clear
4:53 AM 51.1 °F 46.0 °F 83% 29.96 in 10.0 mi Calm Calm - N/A   Clear
6:53 AM 54.0 °F 44.1 °F 69% 29.96 in 10.0 mi Calm Calm - N/A   Clear
7:53 AM 63.0 °F 45.0 °F 52% 29.97 in 10.0 mi Calm Calm - N/A   Clear
8:53 AM 69.1 °F 46.9 °F 45% 29.97 in 10.0 mi Calm Calm - N/A   Clear
9:53 AM 73.0 °F 48.0 °F 41% 29.97 in 10.0 mi Calm Calm - N/A   Clear
10:53 AM 79.0 °F 50.0 °F 36% 29.97 in 10.0 mi Calm Calm - N/A   Clear
11:53 AM 82.0 °F 43.0 °F 25% 29.96 in 10.0 mi Calm Calm - N/A   Clear
12:53 PM 86.0 °F 39.9 °F 20% 29.95 in 10.0 mi South 5.8 mph - N/A   Clear
1:53 PM 88.0 °F 37.9 °F 17% 29.93 in 10.0 mi Variable 3.5 mph - N/A   Clear
2:53 PM 91.0 °F 42.1 °F 18% 29.91 in 10.0 mi SE 6.9 mph - N/A   Clear
3:53 PM 91.9 °F 37.0 °F 15% 29.88 in 10.0 mi SSW 6.9 mph - N/A   Clear
4:53 PM 91.0 °F 33.1 °F 13% 29.88 in 10.0 mi SSW 5.8 mph - N/A   Clear
5:53 PM 90.0 °F 35.1 °F 14% 29.86 in 10.0 mi SSW 9.2 mph - N/A   Clear
6:53 PM 87.1 °F 43.0 °F 21% 29.85 in 10.0 mi South 8.1 mph - N/A   Clear
7:53 PM 82.9 °F 41.0 °F 23% 29.85 in 10.0 mi SW 5.8 mph - N/A   Clear
8:53 PM 75.9 °F 41.0 °F 29% 29.86 in 10.0 mi SW 3.5 mph - N/A   Clear
9:53 PM 69.1 °F 41.0 °F 36% 29.87 in 10.0 mi Calm Calm - N/A   Clear
10:53 PM 64.9 °F 43.0 °F 45% 29.87 in 10.0 mi Calm Calm - N/A   Clear
11:53 PM 63.0 °F 43.0 °F 48% 29.87 in 10.0 mi Calm Calm - N/A   Clear